| time (UTC) | temp F | wind direction | speed knots | gust knots | rain 1hr in | rain 24hr in | rain mn in | humidity % | barometer mb |
| 20260506112404 | 57 | 325 | 6.1 | 13.9 | 0.00 | 0.00 | 0.00 | 58 | 1009.9 |
| 20260506111904 | 57 | 322 | 4.3 | 10.4 | 0.00 | 0.00 | 0.00 | 57 | 1009.5 |
| 20260506111404 | 57 | 331 | 7.0 | 13.0 | 0.00 | 0.00 | 0.00 | 57 | 1009.6 |
| 20260506110904 | 57 | 325 | 6.1 | 12.2 | 0.00 | 0.00 | 0.00 | 56 | 1009.6 |
| 20260506110404 | 58 | 337 | 8.7 | 13.0 | 0.00 | 0.00 | 0.00 | 56 | 1009.3 |
| 20260506105904 | 58 | 322 | 5.2 | 10.4 | 0.00 | 0.00 | 0.00 | 56 | 1009.3 |
| 20260506104904 | 58 | 343 | 4.3 | 10.4 | 0.00 | 0.00 | 0.00 | 56 | 1009.0 |
| 20260506104404 | 58 | 344 | 6.1 | 10.4 | 0.00 | 0.00 | 0.00 | 56 | 1009.0 |
| 20260506103404 | 58 | 329 | 7.8 | 13.9 | 0.00 | 0.00 | 0.00 | 56 | 1008.7 |
| 20260506102904 | 58 | 331 | 4.3 | 11.3 | 0.00 | 0.00 | 0.00 | 56 | 1008.7 |
| 20260506102404 | 58 | 334 | 4.3 | 10.4 | 0.00 | 0.00 | 0.00 | 56 | 1008.5 |
| 20260506101904 | 58 | 315 | 3.5 | 10.4 | 0.00 | 0.00 | 0.00 | 56 | 1008.4 |
| 20260506101404 | 58 | 319 | 5.2 | 11.3 | 0.00 | 0.00 | 0.00 | 56 | 1008.3 |
| 20260506100905 | 58 | 339 | 5.2 | 10.4 | 0.00 | 0.00 | 0.00 | 56 | 1008.3 |
| 20260506100404 | 58 | 335 | 6.1 | 10.4 | 0.00 | 0.00 | 0.00 | 57 | 1008.2 |
| 20260506095904 | 58 | 339 | 5.2 | 10.4 | 0.00 | 0.00 | 0.00 | 57 | 1008.3 |
| 20260506094904 | 58 | 9 | 4.3 | 10.4 | 0.00 | 0.00 | 0.00 | 57 | 1008.2 |
| 20260506094404 | 58 | 320 | 2.6 | 7.8 | 0.00 | 0.00 | 0.00 | 57 | 1008.2 |
| 20260506093905 | 58 | 354 | 4.3 | 7.8 | 0.00 | 0.00 | 0.00 | 57 | 1008.2 |
| 20260506093404 | 58 | 337 | 5.2 | 11.3 | 0.00 | 0.00 | 0.00 | 57 | 1008.2 |
| 20260506092904 | 58 | 341 | 5.2 | 10.4 | 0.00 | 0.00 | 0.00 | 56 | 1008.2 |
| 20260506092404 | 58 | 327 | 5.2 | 10.4 | 0.00 | 0.00 | 0.00 | 56 | 1008.1 |
| 20260506091904 | 58 | 343 | 4.3 | 7.8 | 0.00 | 0.00 | 0.00 | 57 | 1008.1 |
| 20260506090904 | 58 | 336 | 2.6 | 7.0 | 0.00 | 0.00 | 0.00 | 57 | 1008.0 |
| 20260506090404 | 58 | 359 | 4.3 | 7.0 | 0.00 | 0.00 | 0.00 | 57 | 1007.9 |
| 20260506085904 | 58 | 354 | 3.5 | 7.8 | 0.00 | 0.00 | 0.00 | 57 | 1007.9 |
| 20260506085404 | 59 | 346 | 5.2 | 8.7 | 0.00 | 0.00 | 0.00 | 57 | 1007.9 |
| 20260506084904 | 59 | 2 | 2.6 | 5.2 | 0.00 | 0.00 | 0.00 | 57 | 1007.8 |
| 20260506084404 | 59 | 347 | 4.3 | 7.8 | 0.00 | 0.00 | 0.00 | 57 | 1007.7 |
| 20260506083904 | 59 | 35 | 2.6 | 7.8 | 0.00 | 0.00 | 0.00 | 57 | 1007.5 |
| 20260506082904 | 59 | 47 | 2.6 | 7.0 | 0.00 | 0.00 | 0.00 | 57 | 1007.4 |
| 20260506082404 | 59 | 20 | 2.6 | 8.7 | 0.00 | 0.00 | 0.00 | 57 | 1007.4 |
| 20260506081905 | 59 | 346 | 3.5 | 8.7 | 0.00 | 0.00 | 0.00 | 57 | 1007.3 |
| 20260506081404 | 59 | 342 | 4.3 | 8.7 | 0.00 | 0.00 | 0.00 | 57 | 1007.5 |
| 20260506080904 | 59 | 349 | 4.3 | 8.7 | 0.00 | 0.00 | 0.00 | 57 | 1007.4 |
| 20260506080404 | 59 | 34 | 2.6 | 7.0 | 0.00 | 0.00 | 0.00 | 57 | 1007.3 |
| 20260506073404 | 60 | 341 | 6.1 | 12.2 | 0.00 | 0.00 | 0.00 | 57 | 1007.6 |
| 20260506072904 | 60 | 350 | 4.3 | 11.3 | 0.00 | 0.00 | 0.00 | 57 | 1007.6 |
| 20260506072404 | 61 | 346 | 7.0 | 12.2 | 0.00 | 0.00 | 0.00 | 57 | 1007.6 |
| 20260506071904 | 61 | 350 | 5.2 | 11.3 | 0.00 | 0.00 | 0.00 | 57 | 1007.7 |
| 20260506071404 | 62 | 342 | 4.3 | 8.7 | 0.00 | 0.00 | 0.00 | 59 | 1007.5 |
| 20260506070904 | 62 | 341 | 5.2 | 8.7 | 0.00 | 0.00 | 0.00 | 58 | 1007.4 |
| 20260506070405 | 62 | 350 | 4.3 | 10.4 | 0.00 | 0.00 | 0.00 | 58 | 1007.5 |
| 20260506062404 | 63 | 343 | 6.1 | 12.2 | 0.00 | 0.00 | 0.00 | 56 | 1007.4 |
| 20260506061904 | 64 | 331 | 5.2 | 11.3 | 0.00 | 0.00 | 0.00 | 57 | 1007.3 |
| 20260506061404 | 64 | 6 | 5.2 | 8.7 | 0.00 | 0.00 | 0.00 | 56 | 1007.4 |
| 20260506060904 | 64 | 354 | 6.1 | 10.4 | 0.00 | 0.00 | 0.00 | 56 | 1007.3 |
| 20260506060404 | 64 | 351 | 7.0 | 10.4 | 0.00 | 0.00 | 0.00 | 56 | 1007.3 |
| 20260506051404 | 67 | 343 | 6.1 | 11.3 | 0.00 | 0.00 | 0.00 | 56 | 1007.1 |
| 20260506050904 | 67 | 344 | 7.8 | 12.2 | 0.00 | 0.00 | 0.00 | 56 | 1006.9 |
| 20260506050404 | 67 | 346 | 7.0 | 13.9 | 0.00 | 0.00 | 0.00 | 55 | 1007.0 |
| 20260506044904 | 69 | 334 | 7.8 | 13.0 | 0.00 | 0.00 | 0.00 | 56 | 1006.8 |
| 20260506044404 | 69 | 344 | 5.2 | 11.3 | 0.00 | 0.00 | 0.00 | 56 | 1006.7 |
| 20260506043904 | 69 | 348 | 5.2 | 10.4 | 0.00 | 0.00 | 0.00 | 56 | 1006.6 |
| 20260506043404 | 69 | 350 | 6.1 | 11.3 | 0.00 | 0.00 | 0.00 | 56 | 1006.6 |
| 20260506042904 | 70 | 339 | 6.1 | 11.3 | 0.00 | 0.00 | 0.00 | 56 | 1006.5 |
| 20260506042404 | 70 | 337 | 7.0 | 13.0 | 0.00 | 0.00 | 0.00 | 55 | 1006.4 |
| 20260506041904 | 70 | 343 | 7.0 | 12.2 | 0.00 | 0.00 | 0.00 | 55 | 1006.3 |
| 20260506040904 | 71 | 322 | 5.2 | 11.3 | 0.00 | 0.00 | 0.00 | 55 | 1006.3 |
| 20260506040404 | 71 | 315 | 8.7 | 13.0 | 0.00 | 0.00 | 0.00 | 55 | 1006.3 |
| 20260506035404 | 71 | 329 | 4.3 | 10.4 | 0.00 | 0.00 | 0.00 | 55 | 1006.2 |
| 20260506034904 | 71 | 356 | 5.2 | 13.0 | 0.00 | 0.00 | 0.00 | 54 | 1006.0 |
| 20260506034404 | 72 | 347 | 7.8 | 11.3 | 0.00 | 0.00 | 0.00 | 55 | 1006.0 |
| 20260506033904 | 72 | 344 | 5.2 | 8.7 | 0.00 | 0.00 | 0.00 | 55 | 1005.7 |
| 20260506033404 | 72 | 334 | 4.3 | 8.7 | 0.00 | 0.00 | 0.00 | 54 | 1005.9 |
| 20260506032904 | 73 | 330 | 6.1 | 12.2 | 0.00 | 0.00 | 0.00 | 54 | 1005.9 |
| 20260506032404 | 73 | 310 | 5.2 | 15.6 | 0.00 | 0.00 | 0.00 | 54 | 1005.9 |
| 20260506031904 | 74 | 329 | 7.8 | 14.8 | 0.00 | 0.00 | 0.00 | 54 | 1005.7 |
| 20260506031404 | 74 | 324 | 6.1 | 13.9 | 0.00 | 0.00 | 0.00 | 54 | 1005.6 |
| 20260506030904 | 75 | 320 | 7.8 | 14.8 | 0.00 | 0.00 | 0.00 | 54 | 1005.5 |
| 20260506030404 | 75 | 313 | 4.3 | 11.3 | 0.00 | 0.00 | 0.00 | 53 | 1005.3 |
| 20260506025904 | 75 | 322 | 6.1 | 10.4 | 0.00 | 0.00 | 0.00 | 53 | 1005.0 |
| 20260506025404 | 75 | 322 | 5.2 | 11.3 | 0.00 | 0.00 | 0.00 | 53 | 1005.0 |
| 20260506024904 | 75 | 292 | 5.2 | 8.7 | 0.00 | 0.00 | 0.00 | 53 | 1005.0 |
| 20260506024405 | 75 | 297 | 3.5 | 7.0 | 0.00 | 0.00 | 0.00 | 53 | 1004.5 |
| 20260506023904 | 75 | 329 | 4.3 | 7.0 | 0.00 | 0.00 | 0.00 | 52 | 1004.3 |
| 20260506022904 | 76 | 336 | 4.3 | 8.7 | 0.00 | 0.00 | 0.00 | 52 | 1004.1 |
| 20260506022403 | 76 | 289 | 4.3 | 10.4 | 0.00 | 0.00 | 0.00 | 51 | 1004.1 |
| 20260506021904 | 76 | 338 | 6.1 | 11.3 | 0.00 | 0.00 | 0.00 | 51 | 1003.9 |
| 20260506021404 | 77 | 322 | 5.2 | 10.4 | 0.00 | 0.00 | 0.00 | 50 | 1004.0 |
| 20260506020904 | 78 | 312 | 7.0 | 12.2 | 0.00 | 0.00 | 0.00 | 50 | 1003.9 |
| 20260506020404 | 79 | 311 | 4.3 | 10.4 | 0.00 | 0.00 | 0.00 | 49 | 1003.5 |
| 20260506015907 | 80 | 298 | 5.2 | 7.8 | 0.00 | 0.00 | 0.00 | 50 | 1003.9 |
| 20260506015404 | 81 | 276 | 4.3 | 7.8 | 0.00 | 0.00 | 0.00 | 55 | 1003.7 |
| 20260506014404 | 81 | 223 | 0.9 | 2.6 | 0.00 | 0.00 | 0.00 | 55 | 1003.5 |
| 20260506013904 | 81 | 223 | 1.7 | 2.6 | 0.00 | 0.00 | 0.00 | 55 | 1003.6 |
| 20260506013405 | 81 | 224 | 1.7 | 2.6 | 0.00 | 0.00 | 0.00 | 55 | 1003.6 |
| 20260506012405 | 81 | 195 | 1.7 | 4.3 | 0.00 | 0.00 | 0.00 | 54 | 1003.5 |
| 20260506011904 | 81 | 190 | 1.7 | 4.3 | 0.00 | 0.00 | 0.00 | 54 | 1003.2 |
| 20260506011404 | 81 | 161 | 3.5 | 5.2 | 0.00 | 0.00 | 0.00 | 54 | 1002.8 |
| 20260506010403 | 81 | 168 | 6.1 | 10.4 | 0.00 | 0.00 | 0.00 | 54 | 1003.0 |
| 20260506005904 | 81 | 175 | 5.2 | 10.4 | 0.00 | 0.00 | 0.00 | 54 | 1003.1 |
| 20260506005404 | 81 | 172 | 5.2 | 8.7 | 0.00 | 0.00 | 0.00 | 54 | 1003.3 |
| 20260506004904 | 81 | 170 | 5.2 | 13.9 | 0.00 | 0.00 | 0.00 | 54 | 1003.1 |
| 20260506004404 | 82 | 178 | 4.3 | 8.7 | 0.00 | 0.00 | 0.00 | 54 | 1003.2 |
| 20260506003904 | 82 | 158 | 5.2 | 10.4 | 0.00 | 0.00 | 0.00 | 53 | 1003.0 |
| 20260506003404 | 82 | 158 | 5.2 | 13.0 | 0.00 | 0.00 | 0.00 | 53 | 1002.7 |
| 20260506002904 | 82 | 144 | 5.2 | 12.2 | 0.00 | 0.00 | 0.00 | 53 | 1002.5 |
| 20260506001904 | 82 | 156 | 6.1 | 13.0 | 0.00 | 0.00 | 0.00 | 53 | 1002.7 |
| 20260506001404 | 83 | 171 | 8.7 | 13.9 | 0.00 | 0.00 | 0.00 | 52 | 1002.6 |
| 20260506000904 | 83 | 145 | 7.8 | 12.2 | 0.00 | 0.00 | 0.00 | 52 | 1002.1 |
| 20260506000405 | 83 | 159 | 7.8 | 13.0 | 0.00 | 0.00 | 0.00 | 51 | 1002.4 |
| 20260505235904 | 84 | 139 | 7.8 | 13.0 | 0.00 | 0.00 | 0.00 | 51 | 1002.1 |
| 20260505235404 | 84 | 142 | 6.1 | 12.2 | 0.00 | 0.00 | 0.00 | 51 | 1002.0 |
| 20260505234904 | 84 | 148 | 7.8 | 12.2 | 0.00 | 0.00 | 0.00 | 51 | 1002.1 |
| 20260505234404 | 85 | 147 | 6.1 | 13.0 | 0.00 | 0.00 | 0.00 | 50 | 1002.3 |
| 20260505233904 | 85 | 141 | 7.8 | 13.0 | 0.00 | 0.00 | 0.00 | 50 | 1002.4 |
| 20260505233405 | 85 | 141 | 7.8 | 11.3 | 0.00 | 0.00 | 0.00 | 50 | 1002.1 |
| 20260505232404 | 86 | 159 | 7.8 | 11.3 | 0.00 | 0.00 | 0.00 | 50 | 1002.1 |
| 20260505231904 | 86 | 155 | 8.7 | 13.0 | 0.00 | 0.00 | 0.00 | 49 | 1002.3 |
| 20260505230904 | 87 | 159 | 7.8 | 11.3 | 0.00 | 0.00 | 0.00 | 49 | 1002.0 |
| 20260505230404 | 87 | 143 | 7.8 | 14.8 | 0.00 | 0.00 | 0.00 | 49 | 1001.9 |
| 20260505225404 | 87 | 150 | 9.6 | 14.8 | 0.00 | 0.00 | 0.00 | 49 | 1001.9 |
| 20260505224905 | 87 | 145 | 8.7 | 13.9 | 0.00 | 0.00 | 0.00 | 49 | 1001.8 |
| 20260505224404 | 87 | 145 | 7.8 | 12.2 | 0.00 | 0.00 | 0.00 | 49 | 1001.7 |
| 20260505223904 | 87 | 154 | 7.8 | 13.0 | 0.00 | 0.00 | 0.00 | 48 | 1001.6 |
| 20260505223404 | 87 | 158 | 7.0 | 13.9 | 0.00 | 0.00 | 0.00 | 48 | 1001.7 |
| 20260505222904 | 87 | 151 | 10.4 | 17.4 | 0.00 | 0.00 | 0.00 | 48 | 1001.7 |
| 20260505220904 | 87 | 116 | 7.8 | 13.9 | 0.00 | 0.00 | 0.00 | 48 | 1001.7 |
| 20260505220404 | 87 | 144 | 7.8 | 14.8 | 0.00 | 0.00 | 0.00 | 48 | 1001.8 |
| 20260505215904 | 87 | 160 | 7.0 | 14.8 | 0.00 | 0.00 | 0.00 | 48 | 1001.8 |
| 20260505215404 | 87 | 163 | 7.8 | 14.8 | 0.00 | 0.00 | 0.00 | 48 | 1001.8 |
| 20260505214908 | 87 | 160 | 8.7 | 14.8 | 0.00 | 0.00 | 0.00 | 49 | 1001.8 |
| 20260505214405 | 87 | 147 | 8.7 | 14.8 | 0.00 | 0.00 | 0.00 | 48 | 1001.8 |
| 20260505213904 | 87 | 170 | 9.6 | 15.6 | 0.00 | 0.00 | 0.00 | 49 | 1001.8 |
| 20260505213404 | 87 | 170 | 8.7 | 14.8 | 0.00 | 0.00 | 0.00 | 49 | 1002.0 |
| 20260505212404 | 87 | 146 | 8.7 | 14.8 | 0.00 | 0.00 | 0.00 | 48 | 1002.0 |
| 20260505211905 | 87 | 168 | 7.8 | 17.4 | 0.00 | 0.00 | 0.00 | 49 | 1002.1 |
| 20260505211404 | 87 | 166 | 7.8 | 13.9 | 0.00 | 0.00 | 0.00 | 49 | 1002.0 |
| 20260505210904 | 87 | 140 | 9.6 | 13.9 | 0.00 | 0.00 | 0.00 | 48 | 1002.1 |
| 20260505210404 | 87 | 183 | 8.7 | 13.0 | 0.00 | 0.00 | 0.00 | 48 | 1002.1 |
| 20260505205905 | 87 | 179 | 8.7 | 15.6 | 0.00 | 0.00 | 0.00 | 49 | 1002.3 |
| 20260505204904 | 87 | 176 | 6.1 | 13.9 | 0.00 | 0.00 | 0.00 | 49 | 1002.4 |
| 20260505204404 | 87 | 159 | 7.8 | 13.9 | 0.00 | 0.00 | 0.00 | 48 | 1002.4 |
| 20260505203904 | 87 | 190 | 8.7 | 15.6 | 0.00 | 0.00 | 0.00 | 49 | 1002.5 |
| 20260505203405 | 87 | 146 | 12.2 | 18.2 | 0.00 | 0.00 | 0.00 | 49 | 1002.6 |
| 20260505202904 | 86 | 161 | 6.1 | 14.8 | 0.00 | 0.00 | 0.00 | 49 | 1002.6 |
| 20260505202404 | 86 | 171 | 10.4 | 15.6 | 0.00 | 0.00 | 0.00 | 49 | 1002.7 |
| 20260505201907 | 86 | 187 | 8.7 | 14.8 | 0.00 | 0.00 | 0.00 | 50 | 1002.7 |
| 20260505201404 | 85 | 145 | 10.4 | 17.4 | 0.00 | 0.00 | 0.00 | 49 | 1002.6 |
| 20260505200904 | 85 | 164 | 8.7 | 13.9 | 0.00 | 0.00 | 0.00 | 50 | 1002.8 |
| 20260505195404 | 85 | 169 | 11.3 | 17.4 | 0.00 | 0.00 | 0.00 | 51 | 1002.8 |
| 20260505194904 | 85 | 170 | 8.7 | 15.6 | 0.00 | 0.00 | 0.00 | 50 | 1002.7 |
| 20260505194405 | 84 | 169 | 9.6 | 18.2 | 0.00 | 0.00 | 0.00 | 50 | 1002.9 |
| 20260505193903 | 84 | 169 | 7.0 | 17.4 | 0.00 | 0.00 | 0.00 | 51 | 1002.8 |
| 20260505193404 | 84 | 164 | 11.3 | 19.1 | 0.00 | 0.00 | 0.00 | 50 | 1002.9 |
| 20260505192904 | 84 | 180 | 8.7 | 17.4 | 0.00 | 0.00 | 0.00 | 50 | 1002.9 |
| 20260505191907 | 83 | 149 | 11.3 | 15.6 | 0.00 | 0.00 | 0.00 | 52 | 1002.9 |
| 20260505191404 | 83 | 151 | 8.7 | 17.4 | 0.00 | 0.00 | 0.00 | 51 | 1002.8 |
| 20260505190404 | 83 | 168 | 9.6 | 17.4 | 0.00 | 0.00 | 0.00 | 50 | 1003.2 |
| 20260505185904 | 83 | 181 | 10.4 | 17.4 | 0.00 | 0.00 | 0.00 | 51 | 1003.1 |
| 20260505185404 | 82 | 166 | 10.4 | 14.8 | 0.00 | 0.00 | 0.00 | 51 | 1003.2 |
| 20260505184904 | 82 | 157 | 10.4 | 15.6 | 0.00 | 0.00 | 0.00 | 52 | 1003.2 |
| 20260505184404 | 82 | 186 | 8.7 | 18.2 | 0.00 | 0.00 | 0.00 | 51 | 1003.3 |
| 20260505183904 | 82 | 150 | 10.4 | 17.4 | 0.00 | 0.00 | 0.00 | 51 | 1003.2 |
| 20260505182404 | 82 | 173 | 10.4 | 18.2 | 0.00 | 0.00 | 0.00 | 51 | 1003.4 |
| 20260505181904 | 82 | 157 | 8.7 | 15.6 | 0.00 | 0.00 | 0.00 | 52 | 1003.5 |
| 20260505181404 | 82 | 169 | 11.3 | 15.6 | 0.00 | 0.00 | 0.00 | 52 | 1003.4 |
| 20260505180904 | 82 | 182 | 9.6 | 17.4 | 0.00 | 0.00 | 0.00 | 52 | 1003.3 |
| 20260505180404 | 82 | 193 | 10.4 | 18.2 | 0.00 | 0.00 | 0.00 | 51 | 1003.4 |
| 20260505175904 | 82 | 186 | 10.4 | 18.2 | 0.00 | 0.00 | 0.00 | 52 | 1003.5 |
| 20260505174905 | 82 | 176 | 12.2 | 17.4 | 0.00 | 0.00 | 0.00 | 52 | 1003.5 |
| 20260505173404 | 81 | 166 | 12.2 | 18.2 | 0.00 | 0.00 | 0.00 | 52 | 1003.4 |
| 20260505172904 | 81 | 174 | 11.3 | 19.1 | 0.00 | 0.00 | 0.00 | 52 | 1003.5 |
| 20260505172404 | 81 | 169 | 12.2 | 17.4 | 0.00 | 0.00 | 0.00 | 52 | 1003.4 |
| 20260505171904 | 81 | 178 | 10.4 | 19.1 | 0.00 | 0.00 | 0.00 | 51 | 1003.5 |
| 20260505171404 | 81 | 163 | 13.0 | 21.7 | 0.00 | 0.00 | 0.00 | 52 | 1003.5 |
| 20260505170404 | 80 | 187 | 9.6 | 20.0 | 0.00 | 0.00 | 0.00 | 53 | 1003.6 |
| 20260505165903 | 80 | 159 | 11.3 | 19.1 | 0.00 | 0.00 | 0.00 | 52 | 1003.5 |
| 20260505165405 | 80 | 178 | 10.4 | 15.6 | 0.00 | 0.00 | 0.00 | 53 | 1003.5 |
| 20260505164904 | 80 | 178 | 9.6 | 17.4 | 0.00 | 0.00 | 0.00 | 53 | 1003.7 |
| 20260505164404 | 80 | 179 | 12.2 | 22.6 | 0.00 | 0.00 | 0.00 | 52 | 1003.7 |
| 20260505162904 | 79 | 186 | 12.2 | 18.2 | 0.00 | 0.00 | 0.00 | 53 | 1003.5 |
| 20260505162404 | 79 | 179 | 13.0 | 19.1 | 0.00 | 0.00 | 0.00 | 53 | 1003.4 |
| 20260505161403 | 78 | 165 | 12.2 | 20.0 | 0.00 | 0.00 | 0.00 | 54 | 1003.4 |
| 20260505160904 | 78 | 179 | 8.7 | 21.7 | 0.00 | 0.00 | 0.00 | 55 | 1003.3 |
| 20260505160404 | 77 | 175 | 11.3 | 18.2 | 0.00 | 0.00 | 0.00 | 55 | 1003.4 |
| 20260505152904 | 76 | 167 | 12.2 | 19.1 | 0.00 | 0.00 | 0.00 | 57 | 1003.6 |
| 20260505152403 | 76 | 178 | 10.4 | 21.7 | 0.00 | 0.00 | 0.00 | 57 | 1003.6 |
| 20260505151904 | 76 | 184 | 8.7 | 20.0 | 0.00 | 0.00 | 0.00 | 57 | 1003.6 |
| 20260505150904 | 75 | 174 | 8.7 | 14.8 | 0.00 | 0.00 | 0.00 | 57 | 1003.5 |
| 20260505150403 | 75 | 183 | 12.2 | 18.2 | 0.00 | 0.00 | 0.00 | 57 | 1003.4 |
| 20260505140403 | 73 | 164 | 8.7 | 17.4 | 0.00 | 0.00 | 0.00 | 60 | 1003.4 |
| 20260505124904 | 72 | 156 | 8.7 | 15.6 | 0.00 | 0.00 | 0.00 | 61 | 1003.2 |
| 20260505124404 | 72 | 155 | 7.8 | 17.4 | 0.00 | 0.00 | 0.00 | 61 | 1003.1 |
| 20260505123905 | 72 | 143 | 7.8 | 13.9 | 0.00 | 0.00 | 0.00 | 61 | 1003.0 |
| 20260505123404 | 72 | 163 | 8.7 | 13.9 | 0.00 | 0.00 | 0.00 | 61 | 1002.9 |
| 20260505121904 | 71 | 164 | 8.7 | 17.4 | 0.00 | 0.00 | 0.00 | 61 | 1002.8 |
| 20260505121404 | 71 | 165 | 9.6 | 17.4 | 0.00 | 0.00 | 0.00 | 61 | 1002.8 |
| 20260505120904 | 71 | 162 | 7.8 | 17.4 | 0.00 | 0.00 | 0.00 | 61 | 1002.8 |
| 20260505120403 | 71 | 169 | 8.7 | 13.9 | 0.00 | 0.00 | 0.00 | 61 | 1002.6 |
| 20260505115904 | 71 | 163 | 8.7 | 14.8 | 0.00 | 0.00 | 0.00 | 61 | 1002.5 |
| 20260505115404 | 71 | 157 | 9.6 | 18.2 | 0.00 | 0.00 | 0.00 | 61 | 1002.6 |
| 20260505114904 | 71 | 146 | 8.7 | 17.4 | 0.00 | 0.00 | 0.00 | 61 | 1002.5 |
| 20260505114405 | 71 | 153 | 9.6 | 13.9 | 0.00 | 0.00 | 0.00 | 61 | 1002.6 |
| 20260505113904 | 71 | 178 | 7.8 | 19.1 | 0.00 | 0.00 | 0.00 | 61 | 1002.6 |
| 20260505113404 | 71 | 175 | 10.4 | 17.4 | 0.00 | 0.00 | 0.00 | 61 | 1002.5 |
| 20260505112904 | 71 | 180 | 10.4 | 15.6 | 0.00 | 0.00 | 0.00 | 61 | 1002.5 |